PROPCUBE 2 (FAUNA)

Last updated on Mon Aug 01 2022 00:03:41 GMT+0000 (Coordinated Universal Time)

1 43052U 17071R 22211.36221039 .08138261 12364-4 61356-3 0 9997 2 43052 51.6076 169.3150 0005618 254.5964 105.4442 16.39645246262580

Satellite not in orbit